Regional Weather Roundup
Issued by NWS San Angelo, TX

Home | Current Version | Previous Version | Text Only | Print | Product List | Glossary On
Versions: 1 2 3 4 5 6 7 8 9 10 11 12 13 14 15 16 17 18 19 20 21 22 23 24 25 26 27 28 29 30 31 32 33 34 35 36 37 38 39 40 41 42 43 44 45 46 47 48 49 50
000
ASUS44 KSJT 030711
RWRSJT
WEST CENTRAL TEXAS REGIONAL WEATHER ROUNDUP
NATIONAL WEATHER SERVICE SAN ANGELO TX
200 AM CDT TUE MAY 03 2016

NOTE: "FAIR" INDICATES FEW OR NO CLOUDS BELOW 12,000 FEET WITH NO
SIGNIFICANT WEATHER AND/OR OBSTRUCTIONS TO VISIBILITY.

TXZ049-054-064>066-071>073-076>078-098-099-113-114-127-128-139-140-
154-155-168>170-030800
...LOCATIONS ACROSS WEST CENTRAL TEXAS...

CITY           SKY/WX    TMP DP  RH WIND       PRES   REMARKS
SAN ANGELO     CLEAR     46  43  89 CALM      30.12F
ABILENE        CLEAR     49  46  90 S7        30.12F
DYESS AFB      NOT AVBL
JUNCTION       CLEAR     46  43  89 CALM      30.12F
SWEETWATER     CLEAR     50  43  77 S8        30.15F
BROWNWOOD      CLEAR     48  48 100 CALM      30.13S
COLEMAN        SUNNY     48  47  95 CALM      30.13F
SONORA         CLEAR     46  45  93 CALM      30.17S
OZONA          FAIR      46  43  87 CALM      30.16S
BRADY          NOT AVBL
$$

TEXAS PANHANDLE/OKLAHOMA PANHANDLE

CITY           SKY/WX    TMP DP  RH WIND       PRES   REMARKS
AMARILLO       CLEAR     44  36  73 S7        30.13F
BORGER         CLEAR     49  38  65 S5        30.12S
CANADIAN       CLEAR     40  38  95 SW5       30.11F WCI  36
DALHART        CLEAR     40  35  83 SW7       30.13F WCI  35
DUMAS          SUNNY     42  37  81 S7        30.12F WCI  37
GUYMON         NOT AVBL
HEREFORD       SUNNY     44  37  76 SE5       30.15S
PAMPA          SUNNY     44  39  82 S7        30.12F
PERRYTON       CLEAR     42  38  83 S8        30.11S WCI  38
$$

SOUTHERN PANHANDLE/SOUTH PLAINS/ROLLING PLAINS

CITY           SKY/WX    TMP DP  RH WIND       PRES   REMARKS
LUBBOCK        CLEAR     48  32  53 SE5       30.14F
SNYDER           N/A     50  41  69 CALM      30.13F
CHILDRESS      CLEAR     50  38  63 SE8       30.11F
SEMINOLE       SUNNY     47  34  59 CALM      30.15F
$$

PERMIAN BASIN

CITY           SKY/WX    TMP DP  RH WIND       PRES   REMARKS
MIDLAND        CLEAR     53  41  63 S7        30.13F
ODESSA         CLEAR     55  40  56 S6        30.14F
WINK           CLEAR     51  36  56 SE6       30.12S
$$

FAR WEST/SOUTHWEST MOUNTAINS/TRANS PECOS

CITY           SKY/WX    TMP DP  RH WIND       PRES   REMARKS
ALPINE         SUNNY     43  32  65 S3        30.22F
DRYDEN           N/A     55  43  63 N7        30.11S
EL PASO        CLEAR     59  31  34 S6        30.10S
FORT STOCKTON  CLEAR     53  39  59 S9        30.14S
GUADALUPE PASS CLEAR     49  32  52 NE17      30.18F
MARFA          CLEAR     41  32  70 NW5       30.19F WCI  38
PECOS          SUNNY     50  32  49 CALM      30.13S
$$

DALLAS/FORT WORTH METROPLEX

CITY           SKY/WX    TMP DP  RH WIND       PRES   REMARKS
DFW AIRPORT    PTCLDY    55  45  68 CALM      30.09F
FTW MEACHAM    PTCLDY    52  48  86 W3        30.10F
DAL-EXECUTIVE  CLEAR     50  46  86 N3        30.09F
GRAND PRAIRIE  PTCLDY    55  46  71 CALM      30.12F
ADDISON        CLEAR     53  49  85 CALM      30.11F
MESQUITE       MOSUNNY   51  48  89 CALM      30.10F
LANCASTER      MOSUNNY   49  46  88 CALM      30.11F
$$

NORTH CENTRAL TEXAS

CITY           SKY/WX    TMP DP  RH WIND       PRES   REMARKS
SHRMAN/DENISON SUNNY     46  42  84 CALM      30.11F
GAINESVILLE    CLEAR     47  45  94 CALM      30.12F
BRIDGEPORT     SUNNY     47  47 100 CALM      30.13F
DENTON         CLEAR     47  46  97 CALM      30.10F
WAXAHACHIE     SUNNY     49  46  90 N3        30.12F
GRANBURY       MOSUNNY   49  47  93 CALM      30.12F
$$

WESTERN NORTH TEXAS

CITY           SKY/WX    TMP DP  RH WIND       PRES   REMARKS
WICHITA FALLS  CLEAR     49  44  83 SW6       30.11F
VERNON         MOSUNNY   51  42  70 S3        30.13S
BRECKENRIDGE   SUNNY     52  49  88 CALM      30.11F
COMANCHE       CLEAR     51  48  89 CALM      30.13F
$$

CENTRAL AND SOUTH CENTRAL TEXAS

CITY           SKY/WX    TMP DP  RH WIND       PRES   REMARKS
AUSTIN/BERGSTM MOCLDY    57  52  83 N5        30.09F
WACO           CLEAR     52  49  89 NW7       30.10F
HILLSBORO      MOSUNNY   47  46  95 N3        30.10F
TEMPLE         CLEAR     50  49  96 N6        30.10F
KILLEEN-GRAY   NOT AVBL
FORT HOOD      NOT AVBL
GEORGETOWN       N/A    N/A N/A N/A MISG        N/A
LAGO VISTA     CLOUDY    55  50  82 N5        30.11S
SAN MARCOS     MOCLDY    55  52  88 N5        30.09F
NEW BRAUNFELS  MOCLDY    57  51  80 N7        30.07F
RANDOLPH AFB   NOT AVBL
SAN ANTONIO    MOCLDY    58  49  72 N8        30.09F
STINSON        CLOUDY    62  49  62 N9        30.06F
PLEASANTON     NOT AVBL
LA GRANGE        N/A     59  54  83 N3        30.06F
GIDDINGS       SUNNY     56  52  84 CALM      30.11F
$$

EAST TEXAS

CITY           SKY/WX    TMP DP  RH WIND       PRES   REMARKS
PARIS          CLEAR     48  39  71 NW6       30.09S
CLARKSVILLE    NOT AVBL
TYLER          CLEAR     52  48  86 NW5       30.07F
LONGVIEW       CLEAR     53  50  89 NW5       30.06F
PALESTINE      MOSUNNY   52  50  93 CALM      30.09F
NACOGDOCHES    PTCLDY    55  52  88 N6        30.05F
$$

TEXAS HILL COUNTRY AND EDWARDS PLATEAU

CITY           SKY/WX    TMP DP  RH WIND       PRES   REMARKS
LLANO          SUNNY     48  46  93 CALM      30.15F
HORSESHOE BAY  FAIR      49  48  98 CALM      30.11F
KERRVILLE      CLEAR     49  47  95 NW3       30.11F
FREDERICKSBRG  MOCLDY    48  46  93 NW3       30.11F
ROCKSPRINGS    SUNNY     50  46  87 NE3       30.12F
HONDO          CLOUDY    58  53  84 CALM      30.11F
UVALDE         CLOUDY    58  52  82 CALM      30.10F
DEL RIO        CLEAR     55  53  93 CALM      30.10R
$$

SOUTHEAST TEXAS

CITY           SKY/WX    TMP DP  RH WIND       PRES   REMARKS
COLLEGE STN    CLOUDY    58  53  84 N6        30.08S
CALDWELL       MOSUNNY   55  52  88 N6        30.11F
CROCKETT       SUNNY     55  50  82 N5        30.09F
BRENHAM        PTCLDY    58  55  91 CALM      30.08F
HUNTSVILLE     PTCLDY    58  52  80 VRB3      30.07S
CONROE         PTCLDY    59  54  83 N7        30.05F
HOUSTON BUSH   PTCLDY    60  55  83 N13       30.04S
HOUSTON HOBBY  MOCLDY    64  56  75 N12       30.02F
PERLAND        CLOUDY    66  57  72 N13       30.03F
WHARTON        PTSUNNY   60  56  84 N8        30.05F
$$

THE UPPER TEXAS COAST

CITY           SKY/WX    TMP DP  RH WIND       PRES   REMARKS
ORANGE         CLOUDY    65  60  81 N7        30.01F
PORT ARTHUR    CLOUDY    66  61  84 N10       29.99F
GALVESTON      CLOUDY    67  63  87 N14       30.01F
ANGLETON       CLOUDY    66  58  75 N7        30.01F
BAY CITY       CLOUDY    64  58  80 N7        30.02F
$$

TEXAS COASTAL BEND, RIO GRANDE PLAINS DEEP SOUTH TEXAS

CITY           SKY/WX    TMP DP  RH WIND       PRES   REMARKS
VICTORIA       CLOUDY    62  53  72 N8        30.06F
BEEVILLE       CLOUDY    63  55  75 N5        30.07S
ROCKPORT       CLOUDY    65  53  65 N15       30.04F
PORT ARANSAS   CLOUDY    65  57  75 N15       30.03F
PORT LAVACA    CLOUDY    63  57  82 N9        30.05F
CORPUS CHRISTI CLOUDY    66  53  63 N13       30.05F
KINGSVILLE NAS CLOUDY    66  56  70 N9        30.06S
COTULLA        CLOUDY    64  50  60 CALM      30.10S
LAREDO         CLOUDY    64  52  64 N7        30.10F
BROWNSVILLE    CLOUDY    69  58  67 N12       30.03F
PORT ISABEL    CLOUDY    70  59  68 N14       30.02S
HEBBRONVILLE   CLOUDY    64  50  60 N6        30.09S
MCALLEN        CLOUDY    71  55  56 N12       30.05F
WESLACO        CLOUDY    68  55  62 N5        30.04F
FALFURRIAS     CLOUDY    67  52  58 N5        30.06F
EDINBURG       CLOUDY    69  54  58 N7        30.06F
$$



USA.gov is the U.S. government's official web portal to all federal, state and local government web resources and services.